This is the latest recevied weather packets stored in our database for station/object ZL1CTS-13. If no packets are shown the sender has not sent any weather packets the latest 10 day(s).
| Time | Temp. | Humidity | Pressure | Rain* | Wind** | Luminosity | Snow |
|---|---|---|---|---|---|---|---|
| 1788308704 | 16.11° C | 81% | 1009.5 hPa | 0 mm | - | - | - |
| 1788308404 | 16.67° C | 84% | 1009.6 hPa | 0 mm | - | - | - |
| 1788308113 | 16.67° C | 85% | 1009.6 hPa | 0.25 mm | - | - | - |
| 1788308104 | 16.67° C | 85% | 1009.6 hPa | 0.25 mm | - | - | - |
| 1788307804 | 16.11° C | 82% | 1009.8 hPa | 0.25 mm | - | - | - |
| 1788307504 | 16.11° C | 82% | 1009.7 hPa | 0.25 mm | - | - | - |
| 1788307204 | 16.11° C | 81% | 1009.8 hPa | 0.25 mm | - | - | - |
| 1788306903 | 16.11° C | 83% | 1010 hPa | 0.25 mm | - | - | - |
| 1788306604 | 16.11° C | 85% | 1010 hPa | 0.25 mm | - | - | - |
| 1788306305 | 16.11° C | 82% | 1009.8 hPa | 0.25 mm | - | - | - |
| 1788306304 | 16.11° C | 83% | 1009.8 hPa | 0.25 mm | - | - | - |
| 1788306007 | 16.11° C | 81% | 1009.6 hPa | 0.25 mm | - | - | - |
| 1788305703 | 16.11° C | 81% | 1009.6 hPa | 0.25 mm | - | - | - |
| 1788305407 | 16.11° C | 81% | 1009.6 hPa | 0.25 mm | - | - | - |
| 1788305405 | 16.11° C | 81% | 1009.7 hPa | 0.25 mm | - | - | - |
| 1788305103 | 16.11° C | 81% | 1009.7 hPa | 0.25 mm | - | - | - |
| 1788304806 | 16.11° C | 83% | 1009.8 hPa | 0.25 mm | - | - | - |
| 1788304509 | 16.11° C | 84% | 1009.9 hPa | 0 mm | - | - | - |
| 1788304503 | 16.11° C | 84% | 1009.9 hPa | 0 mm | - | - | - |
| 1788304206 | 16.67° C | 86% | 1009.8 hPa | 0 mm | - | - | - |
| 1788303903 | 16.11° C | 86% | 1009.9 hPa | 0 mm | - | - | - |
| 1788303606 | 16.11° C | 87% | 1009.9 hPa | 0 mm | - | - | - |
| 1788303604 | 16.11° C | 87% | 1009.9 hPa | 0 mm | - | - | - |
| 1788303303 | 15.56° C | 87% | 1009.6 hPa | 0 mm | - | - | - |
| 1788303005 | 15.56° C | 87% | 1009.6 hPa | 0 mm | - | - | - |
* Rain latest hour (hover to see other rain measurements)
** Current wind speed in m/s (hover to see current wind gust speed)